Marysville, CA

3:47 AM PST on December 07, 2019 (GMT -0800)
Yuba County

Weather History for KMYV - June, 2019

Change the Weather History Date:

Saturday, June 8, 2019

  Actual Average Record
Temperature  
Mean Temperature 72 °F -  
Max Temperature 86 °F 86 °F 109 °F (2013)
Min Temperature 59 °F 58 °F 46 °F (2007)
Cooling Degree Days 8    
Growing Degree Days 22 (Base 50)    
Moisture  
Dew Point 38 °F    
Average Humidity 29    
Maximum Humidity 44    
Minimum Humidity 20    
Precipitation  
Precipitation 0.00 in - - ()
Sea Level Pressure  
Sea Level Pressure 29.99 in    
Wind  
Wind Speed 19 mph (NNW)    
Max Wind Speed 28 mph    
Max Gust Speed 39 mph    
Visibility 10 miles    
Events      
Averages and records for this station are not official NWS values.
T = Trace of Precipitation, MM = Missing Value Source: NWS Daily Summary

Daily Weather History Graph

Daily Weather History Graph

Search for Another Location

Airport or City:

Astronomy

Jun. 08, 2019 Rise Set
Actual Time 5:40 AM PDT 8:30 PM PDT
Civil Twilight 5:08 AM PDT 9:02 PM PDT
Nautical Twilight 4:28 AM PDT 9:42 PM PDT
Astronomical Twilight 3:42 AM PDT 10:28 PM PDT
Moon 11:13 AM PDT (6/8) 12:36 AM PDT (6/8)
Length of Visible Light 15h 54m
Length of Day
14h 50m
Waxing Crescent, 34% of the Moon is Illuminated
Jun 8
Waxing Crescent
Jun 9
First Quarter
Jun 17
Full
Jun 25
Last Quarter
Jul 2
New

Hourly Weather History & Observations

Time (PDT) Temp. Dew Point Humidity Pressure Visibility Wind Dir Wind Speed Gust Speed Precip Events Conditions
12:53 AM 64.0 °F 36.0 °F 35% 30.00 in 10.0 mi NNW 17.3 mph 24.2 mph N/A   Clear
1:53 AM 63.0 °F 36.0 °F 37% 30.00 in 10.0 mi NNW 18.4 mph 27.6 mph N/A   Clear
2:53 AM 61.0 °F 35.1 °F 38% 30.01 in 10.0 mi NNW 17.3 mph 25.3 mph N/A   Clear
3:53 AM 60.1 °F 35.1 °F 39% 30.02 in 10.0 mi NNW 17.3 mph 25.3 mph N/A   Clear
4:53 AM 60.1 °F 35.1 °F 39% 30.02 in 10.0 mi NNW 16.1 mph 25.3 mph N/A   Clear
5:53 AM 59.0 °F 37.0 °F 44% 30.03 in 10.0 mi NNW 17.3 mph 25.3 mph N/A   Clear
6:53 AM 60.1 °F 37.0 °F 42% 30.03 in 10.0 mi NNW 20.7 mph 28.8 mph N/A   Clear
8:53 AM 68.0 °F 39.9 °F 36% 30.04 in 10.0 mi NNW 20.7 mph 29.9 mph N/A   Clear
9:53 AM 71.1 °F 39.9 °F 32% 30.02 in 10.0 mi NNW 27.6 mph 34.5 mph N/A   Clear
10:53 AM 75.0 °F 39.9 °F 28% 30.02 in 10.0 mi NNW 20.7 mph 34.5 mph N/A   Clear
11:53 AM 78.1 °F 39.9 °F 25% 30.01 in 10.0 mi NNW 26.5 mph 34.5 mph N/A   Clear
12:53 PM 81.0 °F 41.0 °F 24% 29.99 in 10.0 mi NNW 26.5 mph 39.1 mph N/A   Clear
1:53 PM 82.9 °F 39.9 °F 22% 29.99 in 10.0 mi NNW 26.5 mph 34.5 mph N/A   Clear
2:53 PM 86.0 °F 42.1 °F 21% 29.98 in 10.0 mi NNW 20.7 mph 34.5 mph N/A   Clear
3:53 PM 86.0 °F 41.0 °F 20% 29.96 in 10.0 mi NNW 26.5 mph 35.7 mph N/A   Clear
4:53 PM 86.0 °F 39.9 °F 20% 29.95 in 10.0 mi NNW 24.2 mph 32.2 mph N/A   Clear
5:53 PM 82.9 °F 39.0 °F 21% 29.94 in 10.0 mi NNW 20.7 mph 32.2 mph N/A   Clear
6:53 PM 82.0 °F 37.9 °F 21% 29.94 in 10.0 mi NNW 19.6 mph 27.6 mph N/A   Clear
7:53 PM 81.0 °F 37.0 °F 21% 29.94 in 10.0 mi NNW 19.6 mph 29.9 mph N/A   Clear
8:53 PM 77.0 °F 39.0 °F 25% 29.94 in 10.0 mi NNW 16.1 mph - N/A   Clear
9:53 PM 75.0 °F 39.0 °F 27% 29.96 in 10.0 mi NNW 11.5 mph - N/A   Clear
10:53 PM 73.0 °F 35.1 °F 25% 29.98 in 10.0 mi North 9.2 mph - N/A   Clear
11:53 PM 69.1 °F 39.9 °F 35% 29.99 in 10.0 mi NNW 10.4 mph - N/A   Clear